Regional Weather Roundup
Issued by NWS

Home | Current Version | Previous Version | Text Only | Print | Product List | Glossary Off
Versions: 1 2 3 4 5 6 7 8 9 10 11 12 13 14 15 16 17 18 19 20 21 22 23 24 25 26 27 28 29 30 31 32 33 34 35 36 37 38 39 40 41 42 43 44 45 46 47 48 49 50

817
ASUS43 KLOT 240603
RWRIL

ILLINOIS REGIONAL WEATHER ROUNDUP
NATIONAL WEATHER SERVICE CHICAGO/ROMEOVILLE IL
1200 AM CST SAT FEB 24 2018

NOTE: "FAIR" INDICATES FEW OR NO CLOUDS BELOW 12,000 FEET WITH NO
SIGNIFICANT WEATHER AND/OR OBSTRUCTIONS TO VISIBILITY.

* THESE STATIONS ARE NOT UNDER NWS QUALITY CONTROL. THEY ALSO MAY NOT
  REPORT WEATHER SUCH AS PRECIPITATION OR FOG.

ILZ001-002-007-009-015-016-024-240700-
NORTHWEST ILLINOIS

CITY           SKY/WX    TMP DP  RH WIND       PRES   REMARKS
MOLINE         FAIR      30  26  85 N3        30.26F
6HR MIN TEMP:  30; 6HR MAX TEMP:  36;

STERLING*      FAIR      28  26  92 CALM      30.29S
SAVANNA*       FAIR      28  26  93 CALM      30.28F
$$

ILZ003-004-008-010-011-017-018-240700-
NORTH CENTRAL ILLINOIS

CITY           SKY/WX    TMP DP  RH WIND       PRES   REMARKS
ROCKFORD       CLOUDY    28  25  88 CALM      30.29R
6HR MIN TEMP:  28; 6HR MAX TEMP:  34;

FREEPORT*      FAIR      29  26  89 CALM      30.29S
ROCHELLE*      FAIR      30  28  94 W3        30.28F
DE KALB*       FAIR      31  29  93 W5        30.27S WCI  26
PERU*          FAIR      31  28  88 N9        30.24F WCI  23
$$

ILZ005-006-012>014-019>023-240700-
NORTHEAST ILLINOIS

CITY           SKY/WX    TMP DP  RH WIND       PRES   REMARKS
CHICAGO-OHARE  CLOUDY    33  28  81 NW7       30.26S WCI  27
6HR MIN TEMP:  33; 6HR MAX TEMP:  39;

CHICAGO-MIDWAY CLOUDY    35  30  82 N9        30.25F WCI  28
6HR MIN TEMP:  35; 6HR MAX TEMP:  39;

AURORA         FAIR      32  30  92 NW6       30.26F FOG     WCI  26
6HR MIN TEMP:  31; 6HR MAX TEMP:  38;

LANSING*       CLOUDY    36  33  90 CALM      30.25F
JOLIET*        FAIR      34  32  93 N6        30.25F WCI  29
WAUKEGAN       FAIR      31  29  92 CALM      30.26R FOG
6HR MIN TEMP:  31; 6HR MAX TEMP:  37;

DUPAGE AIRPORT FAIR      31  29  92 NW3       30.25F FOG
6HR MIN TEMP:  30; 6HR MAX TEMP:  38;

KANKAKEE*      FAIR      35  33  92 N8        30.25F WCI  29
WHEELING       FAIR      33  29  85 NW3       30.28S
6HR MIN TEMP:  33; 6HR MAX TEMP:  40;

MORRIS*        FAIR      33  31  93 N5        30.25F WCI  28
ROMEOVILLE*    FAIR      32  30  92 N7        30.26S WCI  26
NORTHERLY ISL    N/A     36  30  79 NW6         N/A  WCI  31
$$

LMZ740>746-240700-
SOUTHERN LAKE MICHIGAN

STATION/POSITION SKY/WX   TEMP    WIND        PRES    VSBY  WAVE
                          AIR SEA DIR/SP/G                  HT/PER
                          (F)     (DEG/KT/KT) (MB)    (MI)  (FT/S)
HARRISON CRIB              36     330/  7/  8   N/A
BURNHAM HARBOR             36     340/  5/  8   N/A
CALUMET HARBOR             38     320/  6/  9 1023.9F
BURNS HARBOR               36     340/  5/  7 1025.1F
MICHIGAN CITY              36     320/  6/  6   N/A
$$

ILZ025>027-034>036-040-047-049-050-058-095>099-240700-
WEST-CENTRAL ILLINOIS

CITY           SKY/WX    TMP DP  RH WIND       PRES   REMARKS
QUINCY         MOCLDY    34  32  92 NE6       30.19F WCI  29
GALESBURG*     FAIR      31  30  96 N7        30.24F WCI  24
MACOMB*        MOCLDY   N/A N/A N/A N9        30.24F
JACKSONVILLE*  CLOUDY    36  33  90 N7        30.21F WCI  30
PITTSFIELD*    CLOUDY    37  36  94 NE8       30.20F WCI  31
$$

ILZ028>032-037-038-041>044-048-051>054-059>061-240700-
CENTRAL ILLINOIS

CITY           SKY/WX    TMP DP  RH WIND       PRES   REMARKS
BLOOMINGTON    CLOUDY    35  33  92 N7        30.22F WCI  29
DECATUR        MIX PCPN  37  35  92 N8        30.22F WCI  31
PEORIA         FAIR      35  31  85 NE5       30.23F WCI  31
6HR MIN TEMP:  34; 6HR MAX TEMP:  37;

LACON*         FAIR      32  30  92 N7        30.22F WCI  26
LINCOLN*       FAIR      37  37  99 N3        30.22F
SPRINGFIELD    MOCLDY    38  34  85 NE7       30.21F WCI  33
6HR MIN TEMP:  38; 6HR MAX TEMP:  39;

TAYLORVILLE    LGT RAIN  36  36  99 NE8       30.21F WCI  30
6HR MIN TEMP:  36; 6HR MAX TEMP:  40; 6HR PCP:  0.01;

$$

ILZ033-039-045-046-055>057-062-063-240700-
EAST-CENTRAL ILLINOIS

CITY           SKY/WX    TMP DP  RH WIND       PRES   REMARKS
CHAMPAIGN      CLOUDY    37  36  96 N10       30.22F WCI  30
DANVILLE*      CLOUDY    37  36  96 N8        30.21F WCI  31
RANTOUL*       MOCLDY    39  37  92 N7        30.23F WCI  34
MATTOON        LGT RAIN  38  37  97 N10       30.21S FOG     WCI  31
PARIS*         LGT RAIN  39  39  99 N5        30.23S
$$

ILZ079-100>102-240700-
SOUTHWEST ILLINOIS

CITY           SKY/WX    TMP DP  RH WIND       PRES   REMARKS
ALTON          RAIN      38  38 100 NE6       30.21S WCI  33
BELLEVILLE     LGT RAIN  40  39  93 NE7       30.19F
CAHOKIA*       LGT RAIN  41  39  93 E5        30.20S FOG
SPARTA*        RAIN      44  44 100 N7        30.21F
$$

ILZ064>066-069>071-074>076-080>082-084>086-088>090-092>094-240700-
SOUTH-CENTRAL ILLINOIS

CITY           SKY/WX    TMP DP  RH WIND       PRES   REMARKS
CARBONDALE     NOT AVBL
CAIRO*         CLOUDY    50  48  94 E8        30.17S
EFFINGHAM*     RAIN      40  40 100 N5        30.21F
MT. VERNON     LGT RAIN  45  44  97 N5        30.22R
CENTRALIA*     RAIN      44  43  98 E6        30.22R
SALEM*         LGT RAIN  43  41  91 NE5       30.22R
METROPOLIS*    CLOUDY    50  48  93 CALM      30.18F
$$

ILZ067-068-072-073-078-083-087-091-240700-
SOUTHEAST ILLINOIS

CITY           SKY/WX    TMP DP  RH WIND       PRES   REMARKS
LAWRENCEVILLE  LGT RAIN  46  45  96 NE12      30.22R
FLORA*         CLOUDY    45  43  93 N8        30.22R
FAIRFIELD*     DRIZZLE   46  45  97 MISG      30.21R
HARRISBURG*    CLOUDY    48  48  97 CALM      30.21R
ROBINSON*      LGT RAIN  42  42  98 N9        30.23R
CARMI*         CLOUDY    48  47  99 CALM      30.20S
$$

ABBREVIATIONS USED IN REMARKS
   TC - TEMPERATURE IN CELSIUS
  WCI - WIND CHILL INDEX
   HX - HEAT INDEX
  VSB - VISIBILITY
$$





USA.gov is the U.S. government's official web portal to all federal, state and local government web resources and services.